Location: Borovka
(49.7741°N, 14.5280°E)
Time: 03:14:18
(UTC+00:00)

ESTCUBE 1 - Pass Details

Date: 23 March 2026
Orbit: 620 x 631 km, 97.7° (Epoch: 13 April)

Event Time Altitude Azimuth Distance (km) Brightness Sun altitude
Exits shadow 21:16:50 11° 268° (W) 1,940 ? -33.6°
Maximum altitude 21:17:15 11° 274° (W) 1,933 ? -33.6°
Drops below altitude 10° 21:18:35 10° 292° (WNW) 2,015 ? -33.8°
Sets 21:22:30 0° 328° (NNW) 2,933 ? -34.1°
